Location: Rio Negrinho
(26.2394°S, 49.4999°W)
Time: 20:00:23
(UTC+00:00)

Envisat - Pass Details

Date: 27 July 2021
Orbit: 764 x 766 km, 98.2° (Epoch: 17 September)

Event Time Altitude Azimuth Distance (km) Brightness Sun altitude
Rises 08:08:47 0° 6° (N) 3,213 6.4 -24.8°
Reaches altitude 10° 08:11:06 10° 2° (N) 2,294 5.6 -24.3°
Maximum altitude 08:16:06 64° 281° (W) 853 2.9 -23.2°
Enters shadow 08:16:50 56° 240° (WSW) 909 3.0 -23.1°
